Regional Weather Roundup
Issued by NWS Newport/Morehead, NC

Current Version | Previous Version | Graphics & Text | Print | Product List | Glossary On
Versions: 1 2 3 4 5 6 7 8 9 10 11 12 13 14 15 16 17 18 19 20 21 22 23 24 25 26 27 28 29 30 31 32 33 34 35 36 37 38 39 40 41 42 43 44 45 46 47 48 49 50
000 ASUS42 KMHX 171325 RWRMHX WEATHER ROUNDUP FOR EASTERN NORTH CAROLINA NATIONAL WEATHER SERVICE NEWPORT/MOREHEAD CITY NC 800 AM EST WED JAN 17 2018 NOTE: "FAIR" INDICATES FEW OR NO CLOUDS BELOW 12,000 FEET WITH NO SIGNIFICANT WEATHER AND/OR OBSTRUCTIONS TO VISIBILITY NCZ015>017-031-032-045>047-102-103-171400- NORTH COAST CITY SKY/WX TMP DP RH WIND PRES REMARKS EDENTON NOT AVBL ELIZABETH CITY FAIR 33 33 100 N7 30.29R KITTY HAWK FAIR N/A N/A N/A CALM 30.27R HAZE MANTEO CLOUDY 33 32 99 CALM 30.29R $$ NCZ045>047-081-094-103-104-171400- CENTRAL COAST CITY SKY/WX TMP DP RH WIND PRES REMARKS FRISCO CLOUDY 39 37 92 NE3 30.27R $$ NCZ095-097-098-100-101-171400- SOUTHERN COAST CITY SKY/WX TMP DP RH WIND PRES REMARKS BEAUFORT CLOUDY 38 35 89 CALM 30.27R CEDAR ISLAND NOT AVBL JACKSONVILLE FAIR 32 32 100 CALM 30.26S PINEY ISLAND NOT AVBL WILMINGTON FAIR 32 31 96 E3 30.25F $$ NCZ011>013-027>030-043-044-078>080-089-090>093-098-171400- COASTAL PLAIN CITY SKY/WX TMP DP RH WIND PRES REMARKS AHOSKIE FAIR 32 30 92 N5 30.31R CLINTON MOCLDY 33 32 94 CALM 30.26R ELIZABETHTOWN NOT AVBL GOLDSBORO FAIR 30 26 85 W3 30.25R GREENVILLE FAIR 32 30 93 CALM 30.28R HAVELOCK NOT AVBL KENANSVILLE FAIR 30 28 93 CALM 30.25S FOG KINSTON FAIR 30 28 93 CALM 30.27S NEW BERN FAIR 28 28 100 CALM 30.29R RICHLANDS FAIR 30 29 96 CALM 30.25F ROCKY MOUNT CLOUDY 32 30 92 CALM 30.29R WASHINGTON FAIR 32 31 95 CALM 30.27S WHITEVILLE CLOUDY 34 32 91 CALM 30.24S $$ AMZ130-135-150-152-154-156-158-170-250-252-270-ANZ085-086-088-633-658-670-171400- MARINE OBSERVATIONS STATION/POSITION TIME TEMP WIND PRES WAVE SWELL AIR SEA DIR/SP/G HT/PER HT/PER (UTC) (F) (DEG/KT/KT) (MB) (FT/S) (FT/S) CHESAPEAKE LIGHT NOT AVBL 64 E VA BEACH 1250 45 53 330/ 16/ 17 1024.7 6/12 5/12 DUCK 1300 37 39 350/ 9/ 10 1024.6 2 E DUCK 1300 40 N/A 4/10 3/11 OREGON INLET 1300 36 41 340/ 3/ 5 1025.1 13E OREGON INLT 1248 44 N/A 5/12 5/12 HATTERAS CG 1300 39 47 50/ 4/ 7 1024.8 DIAMOND BUOY 1300 49 360/ 14/ 17 1025.2 CAPE LOOKOUT 1300 20/ 6/ 7 1025.2 BEAUFORT LAB 1300 39 46 30/ 5/ 6 1024.8 30 SE NEW RVR IN 1208 53 58 40/ 6/ 10 1024.4 30 SE NEW RVR IN 1300 58 N/A 4/12 3/12 27 SE WRIGHTSVLE 1208 53 64 30/ 8/ 14 1024.2 5 SE WRIGHTSVLE 1208 46 47 70/ 4/ 6 1023.9 225 S CAPE HAT 1250 69 70 130/ 12/ 14 1021.5 8/11 7/11 41 SE CHARLESTON 1300 59 CALM / 2 1023.4 $$

USA.gov is the U.S. government's official web portal to all federal, state and local government web resources and services.